FW9176 Weather Reports


Display with metric or nautical units.
time (UTC)temp
F
wind
direction
speed
MPH
gust
MPH
rain 1hr
in
rain 24hr
in
rain mn
in
humidity
%
barometer
mb
20260508200104 65 68 1.0 3.0 0.00 0.04 0.00 56 1005.2
20260508194558 67 30 0.0 4.0 0.00 0.04 0.00 44 1005.4
20260508193104 66 207 1.0 5.0 0.00 0.04 0.00 47 1005.6
20260508191556 65 114 0.0 2.0 0.00 0.04 0.00 50 1005.8
20260508190052 65 208 0.0 4.0 0.00 0.04 0.00 48 1006.1
20260508184556 65 81 0.0 1.0 0.00 0.04 0.00 52 1006.1
20260508183051 65 0 0.0 2.0 0.00 0.04 0.00 52 1006.5
20260508181556 65 0 0.0 4.0 0.00 0.04 0.00 51 1006.7
20260508180057 65 123 1.0 7.0 0.00 0.04 0.00 53 1006.7
20260508174611 65 131 0.0 3.0 0.00 0.04 0.00 56 1006.9
20260508173056 66 94 1.0 4.0 0.00 0.04 0.00 57 1007.2
20260508171552 65 128 0.0 2.0 0.00 0.04 0.00 60 1007.5
20260508170056 63 80 0.0 3.0 0.00 0.04 0.00 61 1007.8
20260508164555 62 0 0.0 2.0 0.00 0.04 0.00 63 1008.0
20260508163058 62 150 0.0 3.0 0.00 0.04 0.00 62 1008.2
20260508161553 62 79 0.0 3.0 0.00 0.04 0.00 60 1008.4
20260508160054 61 0 0.0 3.0 0.00 0.04 0.00 59 1008.5
20260508154554 61 0 0.0 2.0 0.00 0.04 0.00 61 1008.6
20260508153053 60 82 0.0 2.0 0.00 0.04 0.00 62 1008.7
20260508151556 59 0 0.0 2.0 0.00 0.04 0.00 60 1008.8
20260508150051 58 0 0.0 2.0 0.00 0.04 0.00 60 1008.9
20260508144552 57 96 0.0 1.0 0.00 0.04 0.00 64 1009.0
20260508143056 55 0 0.0 2.0 0.00 0.04 0.00 69 1009.0
20260508141551 54 0 0.0 1.0 0.00 0.04 0.00 68 1009.0
20260508140058 53 0 0.0 4.0 0.00 0.04 0.00 73 1009.2
20260508134554 52 0 0.0 4.0 0.00 0.04 0.00 76 1009.1
20260508133057 50 0 0.0 0.0 0.00 0.04 0.00 79 1009.0
20260508131556 49 0 0.0 0.0 0.00 0.04 0.00 81 1009.0
20260508130106 48 0 0.0 1.0 0.00 0.04 0.00 83 1009.0
20260508124555 46 0 0.0 0.0 0.00 0.04 0.00 85 1009.1
20260508123100 45 0 0.0 0.0 0.00 0.04 0.00 87 1009.4
20260508121624 44 0 0.0 0.0 0.00 0.04 0.00 87 1009.0
20260508120056 44 0 0.0 0.0 0.00 0.04 0.00 88 1009.3
20260508114553 43 0 0.0 0.0 0.00 0.04 0.00 89 1009.2
20260508113051 43 0 0.0 0.0 0.00 0.04 0.00 89 1009.0
20260508111552 42 0 0.0 0.0 0.00 0.04 0.00 89 1008.8
20260508110055 42 0 0.0 0.0 0.00 0.04 0.00 89 1008.9
20260508104600 41 0 0.0 0.0 0.00 0.04 0.00 88 1008.9
20260508103052 41 0 0.0 0.0 0.00 0.04 0.00 88 1009.0
20260508101549 40 0 0.0 0.0 0.00 0.04 0.00 88 1008.8
20260508100052 40 0 0.0 0.0 0.00 0.04 0.00 87 1009.0
20260508094551 40 0 0.0 0.0 0.00 0.04 0.00 87 1009.1
20260508093055 40 0 0.0 0.0 0.00 0.04 0.00 86 1009.1
20260508091601 41 0 0.0 0.0 0.00 0.04 0.00 86 1009.1
20260508090108 41 0 0.0 0.0 0.00 0.04 0.00 86 1009.1
20260508084554 42 0 0.0 0.0 0.00 0.04 0.00 86 1009.2
20260508083052 42 0 0.0 0.0 0.00 0.04 0.00 85 1009.3
20260508081607 42 0 0.0 0.0 0.00 0.04 0.00 85 1009.4
20260508080055 43 0 0.0 0.0 0.00 0.04 0.00 85 1009.5
20260508074552 43 0 0.0 0.0 0.00 0.04 0.00 84 1009.6
20260508073100 44 0 0.0 0.0 0.00 0.04 0.00 83 1009.7
20260508071618 45 0 0.0 0.0 0.00 0.04 0.00 82 1009.7
20260508070101 45 0 0.0 0.0 0.00 0.04 0.00 81 1009.7
20260508064549 46 0 0.0 0.0 0.00 0.04 0.00 80 1009.6
20260508063051 47 0 0.0 0.0 0.00 0.04 0.00 79 1009.5
20260508061552 47 0 0.0 1.0 0.00 0.04 0.00 78 1009.5
20260508060053 48 0 0.0 0.0 0.00 0.04 0.00 78 1009.5
20260508054554 48 0 0.0 0.0 0.00 0.04 0.00 77 1009.4
20260508053054 49 0 0.0 0.0 0.00 0.04 0.00 76 1009.4
20260508051552 49 0 0.0 0.0 0.00 0.04 0.00 76 1009.3
20260508050054 50 0 0.0 0.0 0.00 0.04 0.00 74 1009.3
20260508044600 50 0 0.0 1.0 0.00 0.04 0.04 73 1009.3
20260508043056 50 0 0.0 1.0 0.00 0.04 0.04 74 1009.2
20260508041552 49 0 0.0 0.0 0.00 0.04 0.04 74 1009.0
20260508040055 49 0 0.0 2.0 0.00 0.04 0.04 76 1009.0
20260508034552 48 0 0.0 0.0 0.00 0.04 0.04 78 1009.0
20260508033115 48 0 0.0 0.0 0.00 0.04 0.04 78 1008.9
20260508031554 49 0 0.0 0.0 0.00 0.04 0.04 78 1008.8
20260508030111 49 0 0.0 0.0 0.00 0.04 0.04 78 1008.8
20260508024620 49 0 0.0 0.0 0.00 0.04 0.04 77 1008.7
20260508023054 50 0 0.0 0.0 0.00 0.04 0.04 77 1008.5
20260508021600 50 0 0.0 0.0 0.00 0.04 0.04 77 1008.5
20260508020111 51 0 0.0 1.0 0.00 0.04 0.04 77 1008.3
20260508014613 51 0 0.0 3.0 0.00 0.04 0.04 77 1008.2
20260508013108 52 159 0.0 1.0 0.00 0.04 0.04 77 1008.0
20260508011605 52 0 0.0 0.0 0.00 0.04 0.04 75 1007.9
20260508010115 53 0 0.0 0.0 0.00 0.04 0.04 72 1007.7
20260508004553 55 0 0.0 0.0 0.00 0.04 0.04 70 1007.7
20260508003105 55 0 0.0 1.0 0.00 0.04 0.04 68 1007.8
20260508001556 57 0 0.0 0.0 0.00 0.04 0.04 68 1007.7
20260508000056 56 0 0.0 0.0 0.00 0.04 0.04 69 1007.7
20260507234551 55 0 0.0 0.0 0.00 0.04 0.04 71 1007.7
20260507233056 55 0 0.0 2.0 0.00 0.04 0.04 71 1007.7
20260507231557 54 0 0.0 1.0 0.01 0.04 0.04 71 1008.0
20260507230055 54 0 0.0 1.0 0.02 0.04 0.04 73 1007.8
20260507224554 55 0 0.0 1.0 0.04 0.04 0.04 69 1008.3
20260507223051 52 281 0.0 2.0 0.04 0.04 0.04 72 1008.4
20260507221551 50 270 0.0 6.0 0.03 0.03 0.03 76 1008.7
20260507220055 53 313 1.0 6.0 0.01 0.01 0.01 70 1008.8
20260507214558 58 315 2.0 6.0 0.00 0.00 0.00 52 1008.3
20260507213058 60 271 1.0 9.0 0.00 0.00 0.00 49 1007.8
20260507211553 60 257 1.0 9.0 0.00 0.00 0.00 47 1007.8
20260507210058 60 289 1.0 8.0 0.00 0.00 0.00 46 1007.9
20260507204548 59 226 1.0 4.0 0.00 0.00 0.00 51 1007.9
20260507203048 59 11 3.0 10.0 0.00 0.00 0.00 52 1008.1
20260507201552 58 255 2.0 10.0 0.00 0.00 0.00 52 1008.5